OSCAR 23 DEB, 33395

Orbit data source: Space-Track

OSCAR 23 DEB, 33395 is space debris in LEO originally from a launch on Tue, 26 Apr 1988 UTC launched from the Air Force Western Test Range (AFWTR). Debris objects in space refer to the collection of defunct objects orbiting the Earth. Examples of debris include non-operational satellites, rocket bodies, and fragments generated from explosions, collisions, or faulty payload assembly.

Loading next visibility...
Identifier
33395, 1988-033K
Orbit
LEO
Country
Flag of USUS
Related business
Manufacturer
Unknown
Mission
Spacecraft
Bus & Motor
Unknown
Mass
Unknown
Launch date (UTC)
1988-04-26 (38 years ago)
Launch vehicle
Unknown
Launch site
Air Force Western Test Range (AFWTR)
Object type
Payload
Rocket body
Debris
Shape & HBR
Unknown shape, 0.1 m
Radar Cross Section
Medium (>0.1 m² and <1 m²)

Expand to show TLE details & history
Last TLE update: 2 days ago

TLE from 2 days ago
0 OSCAR 23 DEB
1 33395U 88033K   26171.38347895  .00000167  00000-0  31214-3 0  9997
2 33395  90.3276  22.2887 0184993 346.6572 188.0341 13.29815506856271
Epoch: 2026-06-20T09:12Z
TLE epoch observation values (Epoch: 2026-06-20T09:12:12.581Z)
Latitude
5.51748°
Longitude
155.66888°
Altitude
1,287.766 km
Speed
7.146 km/s
True Right ascension
13h 29m 16s
True Declination
5° 29' 13"
Sunlit
Object was in daylight at epoch
Visualization orbit readout
Latitude
Unknown
Longitude
Unknown
Altitude
Unknown
Speed
Unknown
Apparent Right ascension
Unknown
Apparent Declination
Unknown
Sunlit
N/A
Visualization observer readout
Local Sidereal Time
00:29:14
Azimuth
Unknown
Elevation
Unknown
Doppler factor
Unknown
Orbital elements
Apogee altitude
1,283.702 km
Perigee altitude
1,005.373 km
Semi-major axis
7,522.674 km
Eccentricity
0.0185
Inclination
90.3276°
RAAN
22.2887°
Arg. of periapsis
346.6572°
True anomaly
187.74446°
Mean anomaly
188.0341°
Eccentric anomaly
187.88863°
Mean motion
3.32648 °/min
Orbital period
108.22 mins
BSTAR
0.00031214
Loading maneuver chart data...
Computing Atmospheric mass density...
Loading historical data...
Loading historical data...
Loading historical data...
Loading historical data...
Loading historical data...
Loading historical data...
Loading historical data...

Documentation

Showing up to 5 results
|